HIMAWARI-8

Last updated on Aug. 7, 2020, 5:35 a.m. UTC

1 40267U 14060A   20219.85980149 -.00000287  00000-0  00000-0 0  9996
2 40267   0.0250 138.7465 0000995  23.0990 244.1881  1.00271815 21295
UTC
Height (km)
Latitude
Longitude
Inclination
Orbital Period
UTC large
Height (km)
Speed (km/s)
/
Latitude / Longitude
Inclination (degrees)
Orbital Period (minutes)
Azimuth
Elevation
Range (km)
Doppler Factor
iOS Compass Heading
iOS Angle

Next 30 passes for location: Hong Kong

Rise time Rise Azimuth (degrees) Set time Set Azimuth (degrees) Duration Max altitude (degrees)

No matching passes for this satellites